Regional Weather Roundup
Issued by NWS

Home | Current Version | Previous Version | Graphics & Text | Print | Product List | Glossary On
Versions: 1 2 3 4 5 6 7 8 9 10 11 12 13 14 15 16 17 18 19 20 21 22 23 24 25 26 27 28 29 30 31 32 33 34 35 36 37 38 39 40 41 42 43 44 45 46 47 48 49 50
000
ASUS43 KLMK 211302
RWRKY
KENTUCKY REGIONAL WEATHER ROUNDUP
NATIONAL WEATHER SERVICE LOUISVILLE KY
800 AM EST SAT JAN 21 2017

NOTE "FAIR" INDICATES FEW OR NO CLOUDS BELOW 12,000 FEET
WITH NO SIGNIFICANT WEATHER AND/OR OBSTRUCTIONS TO VISIBILITY.

KYZ001>023-026-027-061>063-070>075-211400-
WESTERN AND SOUTH CENTRAL KENTUCKY

CITY           SKY/WX    TMP DP  RH WIND       PRES   REMARKS
PADUCAH        CLOUDY    58  50  75 S8        29.63R
HENDERSON      PTCLDY    54  48  82 S7        29.64R
OWENSBORO      CLOUDY    53  50  89 SE5       29.67S
HOPKINSVILLE   CLOUDY    55  53  94 SE7       29.70R
BOWLING GREEN  CLOUDY    54  51  90 S5        29.74R
GLASGOW        NOT AVBL
$$

KYZ024-025-028>034-038-045-046-053-211400-
NORTH CENTRAL KENTUCKY

CITY           SKY/WX    TMP DP  RH WIND       PRES   REMARKS
LOUISVILLE/SDF MOCLDY    51  48  89 SE8       29.71R
LOUISVILLE/LOU PTCLDY    51  48  89 SE3       29.72R
FORT KNOX      PTCLDY    53  52  96 S6        29.70R
$$

KYZ035>037-039>044-047>052-055>060-089>105-211400-
NORTHEAST KENTUCKY

CITY           SKY/WX    TMP DP  RH WIND       PRES   REMARKS
LEXINGTON      CLEAR     52  47  83 S8        29.75S
COVINGTON      PTCLDY    48  46  93 S7        29.69F
FRANKFORT      CLEAR     52  47  83 S7        29.73S
$$

KYZ054-064>069-076>088-106>120-211400-
SOUTHEAST KENTUCKY

CITY           SKY/WX    TMP DP  RH WIND       PRES   REMARKS
JACKSON        CLEAR     55  49  80 VRB5      29.78F
LONDON         CLEAR     47  44  90 S3        29.79S
SOMERSET       CLEAR     52  50  93 S5        29.80R
MIDDLESBORO    MOCLDY    42  42 100 CALM      29.85R
MONTICELLO     MOSUNNY   47  46  97 VRB6      29.80R
$$




USA.gov is the U.S. government's official web portal to all federal, state and local government web resources and services.